Regional Weather Roundup
Issued by NWS San Diego, CA

Home | Current Version | Previous Version | Text Only | Print | Product List | Glossary On
Versions: 1 2 3 4 5 6 7 8 9 10 11 12 13 14 15 16 17 18 19 20 21 22 23 24 25 26 27 28 29 30 31 32 33 34 35 36 37 38 39 40 41 42 43 44 45 46 47 48 49 50
000
ASUS46 KSGX 191010
RWRSGX

SAN DIEGO HOURLY WEATHER ROUNDUP
NATIONAL WEATHER SERVICE SAN DIEGO CA
300 AM PDT FRI SEP 19 2014

NOTE: "FAIR" INDICATES FEW OR NO CLOUDS BELOW 12,000 FEET WITH NO
SIGNIFICANT WEATHER AND/OR OBSTRUCTIONS TO VISIBILITY.

CAZ042-043-060-061-PZZ750-775-191100-

GREATER SAN DIEGO AREA

CITY           SKY/WX    TMP DP  RH WIND       PRES   REMARKS
LINDBERGH FLD  MOCLDY    72  65  78 NW3       29.88S
POINT LOMA       N/A     68  64  88 W6          N/A
NATIONAL CITY    N/A     72  67  84 W3        29.88S
CHULA VISTA      N/A     70  67  90 CALM      29.80S
IMPERIAL BEACH PTCLDY    70  65  84 SW6       29.87S
BROWN FIELD    MOCLDY    68  63  84 W6        29.88S
MIRAMAR MCAS   MOCLDY    69  63  81 N6        29.88S
MONTGOMERY FLD MOCLDY    70  64  81 NW6       29.88S

$$

NORTH SAN DIEGO COUNTY

CITY           SKY/WX    TMP DP  RH WIND       PRES   REMARKS
CAMP PENDLETON CLOUDY    70  63  78 CALM      29.87S
OCEANSIDE AP   MOCLDY    71  63  75 CALM      29.86S
OCEANSIDE HBR    N/A     71  66  84 CALM      29.89S
VISTA            N/A     68  63  84 CALM      29.86R
CARLSBAD       MOCLDY    70  63  78 CALM      29.87S
DEL MAR          N/A     67  64  89 CALM      29.89S
FALLBROOK        N/A     67  67 100 CALM      29.88R
ESCONDIDO        N/A     69  64  85 W2        29.88S
SAN MARCOS       N/A     67  63  85 CALM      29.85S
POWAY            N/A     68  63  86 CALM      29.88R

$$

EAST SAN DIEGO COUNTY

CITY           SKY/WX    TMP DP  RH WIND       PRES   REMARKS
RAMONA         CLOUDY    65  62  90 CALM      29.90S
SANTEE LAKES     N/A     68  64  86 CALM      29.88S
LA MESA          N/A     69  66  89 CALM      29.81S
JAMUL            N/A     66  63  89 CALM      29.84F
DESCANSO N       N/A     56  53  88 E2        29.73F
MT. LAGUNA OBS   N/A     55  47  74 NW12      29.65S
CAMPO            N/A     61  58  90 CALM      29.90F

$$

ORANGE COUNTY AND THE LOS ANGELES BASIN

CITY           SKY/WX    TMP DP  RH WIND       PRES   REMARKS
JOHN WAYNE AP  MOCLDY    71  63  75 W5        29.87S
LAGUNA BEACH     N/A    N/A  18   0 CALM      29.83S
LAKE FOREST FR   N/A     67  61  81 CALM      29.76S
SANTA ANA        N/A     70  65  85 CALM      29.82S
HUNTINGTON BCH   N/A     68  65  92 CALM      29.89S
LOS ALAMITOS   CLOUDY    68  64  85 CALM      29.87S
FULLERTON      CLOUDY    70  63  78 CALM      29.86S
LONG BEACH     PTCLDY    68  64  87 CALM      29.87S
L.A. AP        PTCLDY    67  62  84 W5        29.87F
L.A. DOWNTOWN  MOCLDY    67  62  84 CALM      29.87S

$$

THE INLAND EMPIRE

CITY           SKY/WX    TMP DP  RH WIND       PRES   REMARKS
CORONA         MOCLDY    67  62  84 CALM      29.88S
CHINO          CLOUDY    69  62  78 W5        29.89S
ONTARIO        CLOUDY    69  60  73 W5        29.88F
RIVERSIDE AP   CLOUDY    69  61  75 CALM      29.88F
RIV CYN CREST    N/A     67  67  99 CALM      29.87S
MORENO VALLEY    N/A     64  62  94 CALM      29.07S
MARCH ARB      CLOUDY    67  60  80 NW7       29.90S
HORSETHIEF CYN   N/A     67  60  79 NW1       29.88R
PERRIS           N/A     66  63  89 S3        29.87S
MENIFEE          N/A     67  64  91 SW1       29.95S
HEMET EAST       N/A     64  59  85 CALM      29.85S
FRENCH VALLEY  CLOUDY    66  63  88 SW5       29.90S
TEMECULA         N/A     67  65  91 SW1       29.87S

$$

SAN BERNARDINO AND RIVERSIDE COUNTY MOUNTAINS

CITY           SKY/WX    TMP DP  RH WIND       PRES   REMARKS
BIG BEAR AP    CLEAR     50  45  81 W6        30.09F
ANGELUS OAKS     N/A     52  46  79 CALM      29.70S
PINE COVE        N/A     53  48  82 N3        29.68S

$$

SOUTHERN DESERT INCLUDING THE COACHELLA VALLEY

CITY           SKY/WX    TMP DP  RH WIND       PRES   REMARKS
PALM SPRINGS   CLEAR     78  60  53 SE6       29.73S
THOUSAND PALMS   N/A     78  60  53 NW16      29.68S
PALM DESERT      N/A     76  61  60 CALM        N/A
THERMAL        CLEAR     81  58  45 NW13      29.67S
BLYTHE         CLEAR     80  59  48 S9        29.71R
IMPERIAL AP    CLEAR     81  57  43 W15G24    29.69F
EL CENTRO NAS  CLEAR     83  56  39 W20       29.70F
YUMA AZ        CLEAR     82  55  39 S3        29.72S

$$

UPPER DESERT

CITY           SKY/WX    TMP DP  RH WIND       PRES   REMARKS
VICTORVILLE AP CLEAR     63  55  77 S3        29.91S
HESPERIA         N/A     65  53  65 W5        29.88S
APPLE VALLEY     N/A     64  54  69 CALM      30.00S
PALMDALE       CLEAR     68  52  56 SW10      29.90S
LANCASTER      CLEAR     66  53  63 W17       29.90R
EDWARDS AFB    CLEAR     65  51  60 SW10      29.86S
DAGGETT        CLEAR     75  52  44 SW20      29.82S
29 PALMS N     CLEAR     75  52  44 W9        29.89R
NEEDLES        PTCLDY    87  44  22 W8        29.71R

$$

REGIONAL REPORTS

CITY           SKY/WX    TMP DP  RH WIND       PRES   REMARKS
SANTA BARBARA  CLEAR     62  59  90 CALM      29.85S
SANDBERG       CLEAR     59  50  72 N15G22    30.00S
MT. WILSON       N/A     52  48  87 S3          N/A
LAS VEGAS NV   CLEAR     79  45  29 S14       29.75R
PHOENIX AZ     PTCLDY    85  67  54 CALM      29.76S
TIJUANA        PTCLDY    68  61  77 CALM      29.90S

$$

OFFSHORE ISLANDS

CITY           SKY/WX    TMP DP  RH WIND       PRES   REMARKS
CATALINA ARPT  CLOUDY    61  59  93 SW13      29.91F FOG
SAN NICOLAS IS CLEAR    N/A N/A N/A W13       29.89S

$$

MARINE AND OFFSHORE BUOY REPORTS

STATION/POSITION SKY/WX   TEMP    WIND        PRES    SWELL
                          AIR SEA DIR/SP/G            HT/PER/DIR
                          (F)     (DEG/KT/KT) (MB)    (FT/S/D)
TANNER BANKS               68 70  320/ 12/ 14 1012.6S   7/210/16
S CLEMENTE BASIN           70 74  300/ 10/ 14 1011.9S   5/210/15
SAN NICOLAS IS.               68                N/A     5/190/15
SO. S. ROSA ISLA           67 69  310/ 16/ 17 1011.1F   7/15
W. S. BARBARA CH           62 59  310/ 10/ 10 1011.1R   5/300/12
M. S. BARBARA CH           65     340/  2     1011.1
S. MONICA BASIN            68 72  230/  8/ 10 1011.0F   5/220/15
S PEDRO CHANNEL               73                N/A     2/170/14
DANA POINT                    69                N/A     3/200/14
CMP PENDLETON NS              71                N/A     3/220/15
OCEANSIDE OFFSHR              74                N/A     3/210/15
TORREY PINES OTR              73                N/A     3/200/17
LA JOLLA 1                 71 66   40/  4/  4 1011.6S
MISSION BAY BUOY              73                N/A     3/220/15
SAN DIEGO BAY                 77              1012.0F

$$



USA.gov is the U.S. government's official web portal to all federal, state and local government web resources and services.